Location: Killam
(52.7910°N, 111.8608°W)
Time: 20:33:00
(UTC+00:00)

A-11 Canister half - Pass Details

Date: 22 February 2026
Orbit: 1525 x 1683 km, 47.3° (Epoch: 5 March)

Event Time Altitude Azimuth Distance (km) Brightness Sun altitude
Rises 23:51:16 0° 236° (WSW) 4,729 14.0 7.6°
Reaches altitude 10° 23:54:27 10° 232° (SW) 3,729 13.4 7.2°
Maximum altitude 00:03:24 52° 160° (SSE) 1,834 9.6 6.0°
Drops below altitude 10° 00:12:17 10° 87° (E) 3,695 10.5 4.7°
Sets 00:15:24 0° 83° (E) 4,682 10.9 4.3°
